Weather History for Cambridge, MD

Change the Weather History Date:

Tuesday, February 26, 2013

  Actual Average (KESN) Record (KESN)
Temperature  
Mean Temperature 42 °F -  
Max Temperature 53 °F 51 °F 69 °F (1977)
Min Temperature 30 °F 28 °F 12 °F (1950)
Degree Days  
Heating Degree Days 24    
Moisture  
Dew Point 36 °F    
Average Humidity 86    
Maximum Humidity 94    
Minimum Humidity 71    
Precipitation  
Precipitation 0.00 in - - ()
Sea Level Pressure  
Sea Level Pressure 30.01 in    
Wind  
Wind Speed 6 mph (East)    
Max Wind Speed 22 mph    
Max Gust Speed 34 mph    
Visibility 8 miles    
Events      
Averages and records for this station are not official NWS values.
T = Trace of Precipitation, MM = Missing Value Source: NWS Daily Summary

Daily Weather History Graph

Daily Weather History Graph

Search for Another Location

Airport:

Trip Planner

Search our weather history database for the weather conditions in past years. The results will help you decide how hot, cold, wet, or windy it might be!

Date:

Astronomy

Feb. 26, 2013 Rise Set
Actual Time 6:40 AM EST 5:54 PM EST
Civil Twilight 6:13 AM EST 6:20 PM EST
Nautical Twilight 5:42 AM EST 6:51 PM EST
Astronomical Twilight 5:12 AM EST 7:22 PM EST
Moon 7:06 PM EST (2/26) 6:42 AM EST (2/26)
Length of Visible Light 12h 07m
Length of Day
11h 14m
Full, 99% of the Moon is Illuminated
Feb 26
Full
Mar 4
Last Quarter
Mar 11
New
Mar 19
First Quarter
Mar 27
Full

Hourly Weather History & Observations

Time (EST) Temp. Windchill Dew Point Humidity Pressure Visibility Wind Dir Wind Speed Gust Speed Precip Events Conditions
12:02 AM 30.2 °F - 28.4 °F 93% 30.22 in 10.0 mi Calm Calm - N/A   Clear
12:22 AM 30.2 °F - 28.4 °F 93% 30.23 in 10.0 mi Calm Calm - N/A   Clear
12:42 AM 30.2 °F - 28.4 °F 93% 30.22 in 7.0 mi Calm Calm - N/A   Clear
1:02 AM 30.2 °F - 28.4 °F 93% 30.21 in 7.0 mi Calm Calm - N/A   Clear
1:22 AM 30.2 °F - 28.4 °F 93% 30.21 in 10.0 mi Calm Calm - N/A   Clear
1:42 AM 30.2 °F - 28.4 °F 93% 30.23 in 7.0 mi Calm Calm - N/A   Clear
2:02 AM 30.2 °F - 28.4 °F 93% 30.23 in 7.0 mi Calm Calm - N/A   Clear
2:22 AM 30.2 °F - 28.4 °F 93% 30.23 in 7.0 mi Calm Calm - N/A   Clear
2:42 AM 30.2 °F - 28.4 °F 93% 30.22 in 5.0 mi Calm Calm - N/A   Clear
3:02 AM 30.2 °F - 28.4 °F 93% 30.21 in 7.0 mi Calm Calm - N/A   Clear
3:22 AM 30.2 °F - 28.4 °F 93% 30.21 in 7.0 mi Calm Calm - N/A   Clear
3:42 AM 30.2 °F - 28.4 °F 93% 30.20 in 7.0 mi Calm Calm - N/A   Clear
4:02 AM 30.2 °F - 28.4 °F 93% 30.19 in 7.0 mi Calm Calm - N/A   Clear
4:22 AM 30.2 °F - 28.4 °F 93% 30.20 in 7.0 mi Calm Calm - N/A   Clear
5:03 AM 30.2 °F 26.7 °F 28.4 °F 93% 30.18 in 7.0 mi NE 3.5 mph - N/A   Clear
5:23 AM 32.0 °F 27.5 °F 28.4 °F 87% 30.18 in 10.0 mi NE 4.6 mph - N/A   Clear
5:43 AM 32.0 °F 28.7 °F 28.4 °F 87% 30.19 in 10.0 mi NE 3.5 mph - N/A   Clear
6:03 AM 32.0 °F 28.7 °F 28.4 °F 87% 30.18 in 10.0 mi NE 3.5 mph - N/A   Clear
6:23 AM 32.0 °F - 28.4 °F 87% 30.19 in 10.0 mi Calm Calm - N/A   Clear
7:03 AM 32.0 °F 28.7 °F 28.4 °F 87% 30.19 in 10.0 mi ENE 3.5 mph - N/A   Clear
7:23 AM 32.0 °F 28.7 °F 28.4 °F 87% 30.19 in 10.0 mi ENE 3.5 mph - N/A   Clear
7:43 AM 33.8 °F 27.7 °F 30.2 °F 87% 30.18 in 10.0 mi ENE 6.9 mph - N/A   Clear
8:03 AM 33.8 °F 27.7 °F 28.4 °F 81% 30.19 in 10.0 mi ENE 6.9 mph - N/A   Clear
8:23 AM 33.8 °F 27.7 °F 28.4 °F 81% 30.19 in 10.0 mi ENE 6.9 mph - N/A   Clear
8:43 AM 33.8 °F 27.7 °F 30.2 °F 87% 30.18 in 10.0 mi ENE 6.9 mph - N/A   Clear
9:03 AM 35.6 °F 28.6 °F 30.2 °F 81% 30.18 in 10.0 mi ENE 9.2 mph - N/A   Clear
9:23 AM 35.6 °F 28.6 °F 32.0 °F 87% 30.18 in 10.0 mi East 9.2 mph - N/A   Clear
10:03 AM 39.2 °F 33.0 °F 32.0 °F 75% 30.18 in 10.0 mi East 9.2 mph - N/A   Clear
10:23 AM 39.2 °F 33.6 °F 32.0 °F 75% 30.18 in 10.0 mi East 8.1 mph - N/A   Clear
10:43 AM 39.2 °F 32.5 °F 32.0 °F 75% 30.15 in 10.0 mi East 10.4 mph - N/A   Clear
11:03 AM 41.0 °F 35.8 °F 33.8 °F 76% 30.15 in 10.0 mi East 8.1 mph - N/A   Clear
11:23 AM 41.0 °F 35.2 °F 33.8 °F 76% 30.14 in 10.0 mi East 9.2 mph - N/A   Scattered Clouds
11:43 AM 41.0 °F 34.3 °F 33.8 °F 76% 30.13 in 10.0 mi East 11.5 mph - N/A   Scattered Clouds
12:03 PM 41.0 °F 34.7 °F 33.8 °F 76% 30.11 in 10.0 mi ENE 10.4 mph 17.3 mph N/A   Scattered Clouds
12:23 PM 42.8 °F 36.6 °F 35.6 °F 76% 30.10 in 10.0 mi East 11.5 mph - N/A   Scattered Clouds
12:43 PM 42.8 °F 37.0 °F 35.6 °F 76% 30.09 in 10.0 mi East 10.4 mph 17.3 mph N/A   Scattered Clouds
1:04 PM 44.6 °F 39.2 °F 35.6 °F 71% 30.07 in 10.0 mi East 10.4 mph 20.7 mph N/A   Scattered Clouds
1:24 PM 46.4 °F 40.7 °F 37.4 °F 71% 30.05 in 10.0 mi ENE 12.7 mph 20.7 mph N/A   Mostly Cloudy
2:04 PM 46.4 °F 40.4 °F 37.4 °F 71% 30.03 in 10.0 mi East 13.8 mph 23.0 mph N/A   Mostly Cloudy
2:24 PM 46.4 °F 41.1 °F 37.4 °F 71% 30.02 in 10.0 mi East 11.5 mph 19.6 mph N/A   Mostly Cloudy
2:44 PM 46.4 °F 40.1 °F 39.2 °F 76% 30.01 in 10.0 mi East 15.0 mph 23.0 mph N/A   Mostly Cloudy
3:04 PM 46.4 °F 39.5 °F 39.2 °F 76% 29.99 in 10.0 mi East 17.3 mph 24.2 mph N/A   Scattered Clouds
3:24 PM 46.4 °F 39.8 °F 41.0 °F 81% 29.98 in 10.0 mi East 16.1 mph 24.2 mph N/A   Scattered Clouds
3:44 PM 46.4 °F 40.4 °F 41.0 °F 81% 29.96 in 10.0 mi East 13.8 mph 23.0 mph N/A   Scattered Clouds
4:04 PM 44.6 °F 38.1 °F 41.0 °F 87% 29.95 in 10.0 mi East 13.8 mph 20.7 mph N/A   Scattered Clouds
4:24 PM 44.6 °F 37.8 °F 41.0 °F 87% 29.93 in 10.0 mi East 15.0 mph 21.9 mph N/A   Mostly Cloudy
4:44 PM 44.6 °F 36.9 °F 41.0 °F 87% 29.90 in 10.0 mi East 18.4 mph 24.2 mph N/A   Mostly Cloudy
5:04 PM 44.6 °F 37.8 °F 41.0 °F 87% 29.89 in 10.0 mi East 15.0 mph 24.2 mph N/A   Mostly Cloudy
5:24 PM 44.6 °F 37.2 °F 41.0 °F 87% 29.87 in 10.0 mi East 17.3 mph 28.8 mph N/A   Mostly Cloudy
5:44 PM 44.6 °F 37.4 °F 41.0 °F 87% 29.84 in 10.0 mi East 16.1 mph 25.3 mph N/A   Overcast
6:04 PM 44.6 °F 37.4 °F 42.8 °F 93% 29.83 in 10.0 mi East 16.1 mph 26.5 mph N/A   Overcast
6:24 PM 44.6 °F 37.2 °F 42.8 °F 93% 29.79 in 5.0 mi East 17.3 mph 26.5 mph N/A   Overcast
6:44 PM 46.4 °F 39.0 °F 44.6 °F 93% 29.78 in 5.0 mi East 19.6 mph 31.1 mph N/A   Overcast
7:04 PM 46.4 °F 38.5 °F 44.6 °F 93% 29.77 in 5.0 mi East 21.9 mph 28.8 mph N/A   Overcast
7:24 PM 46.4 °F 40.1 °F 44.6 °F 93% 29.77 in 5.0 mi East 15.0 mph 26.5 mph N/A   Overcast
7:44 PM 46.4 °F 40.1 °F 44.6 °F 93% 29.75 in 5.0 mi East 15.0 mph 25.3 mph N/A   Overcast
8:04 PM 50.0 °F - 46.4 °F 87% 29.72 in 4.0 mi East 20.7 mph 33.4 mph N/A   Mostly Cloudy
8:24 PM 50.0 °F - 46.4 °F 87% 29.70 in 7.0 mi East 18.4 mph 24.2 mph N/A   Overcast
8:44 PM 50.0 °F - 46.4 °F 87% 29.69 in 5.0 mi East 17.3 mph 24.2 mph N/A   Overcast
9:04 PM 50.0 °F - 46.4 °F 87% 29.67 in 4.0 mi East 12.7 mph 25.3 mph N/A   Overcast
9:24 PM 50.0 °F - 46.4 °F 87% 29.68 in 5.0 mi East 12.7 mph 19.6 mph N/A   Overcast
9:44 PM 50.0 °F - 46.4 °F 87% 29.66 in 4.0 mi East 10.4 mph - N/A   Overcast
10:05 PM 50.0 °F - 48.2 °F 94% 29.67 in 5.0 mi ESE 3.5 mph - N/A   Overcast
10:25 PM 51.8 °F - 50.0 °F 94% 29.63 in 10.0 mi ESE 13.8 mph 34.5 mph N/A   Overcast
10:45 PM 53.6 °F - 51.8 °F 94% 29.61 in 10.0 mi East 17.3 mph 23.0 mph N/A   Overcast
11:05 PM 53.6 °F - 51.8 °F 94% 29.60 in 10.0 mi East 18.4 mph 24.2 mph N/A   Overcast
11:25 PM 53.6 °F - 51.8 °F 94% 29.58 in 10.0 mi East 16.1 mph 23.0 mph N/A   Overcast
11:45 PM 53.6 °F - 51.8 °F 94% 29.57 in 10.0 mi East 12.7 mph 17.3 mph N/A   Overcast